Location: *
(40.4270°N, 9.4940°E)
Time: 03:33:34
(UTC+02:00)

Okean 2 - Visible Passes

Search period start: 23 August 2014 00:00
Search period end: 02 September 2014 00:00
Orbit: 570 x 588 km, 82.5° (Epoch: 22 August)

Date Brightness Start Highest point End Pass type
(mag) Time Alt. Az. Time Alt. Az. Time Alt. Az.
23 Aug 6.3 20:49:14 10° NW 20:52:22 21° W 20:55:29 10° SW visible
24 Aug 6.5 20:54:34 10° NW 20:57:00 15° W 20:59:25 10° WSW visible
25 Aug 7.0 21:00:31 10° WNW 21:01:36 11° W 21:02:41 10° W visible
